Wetbulb
54.26 48.78 47.31 51.19 52.31 52.31 51.04 49.85 50.10 53.00 56.72 55.40 53.77 53.05 54.90 57.50 61.52 61.69 60.65 62.24 64.94 66.84 67.76 69.43 68.93 70.64 70.97 71.94 71.78 71.41 71.51 71.82 72.96 71.95 71.64 69.81 66.46 70.60 71.32 72.35 72.24 73.03 73.24 73.58
50.86 47.69 53.77 55.84 53.69 51.93 50.62 49.22 49.30 53.18 57.01 53.78 51.94 52.18 55.07 57.01 57.12 59.57 61.57 60.41 65.01 66.12 67.07 68.23 68.42 68.83 70.52 70.85 71.75 71.28 72.14 72.60 72.23 71.97 71.70 71.21 69.10 70.62 70.35 71.60 71.33 71.99 72.60 72.61
48.63 51.80 55.79 54.27 51.01 50.64 48.56 46.59 49.05 49.72 54.38 54.11 52.34 49.70 53.03 58.82 58.61 58.56 59.81 62.02 62.40 66.00 66.41 67.11 67.52 68.23 70.51 70.64 71.18 71.80 71.42 72.06 72.47 72.54 71.95 72.52 72.29 71.36 69.98 70.19 70.10 71.18 71.94 72.43
50.62 54.40 53.59 50.46 49.78 49.37 45.81 51.53 52.27 52.47 48.75 44.13 50.72 42.89 49.72 54.25 55.57 57.44 56.90 57.84 59.53 66.19 67.60 67.94 67.55 67.32 69.53 70.71 72.25 72.54 71.59 71.98 72.45 73.39 72.23 70.31 70.11 68.25 70.00 69.92 69.94 70.47 71.67 71.24
49.20 51.34 50.72 49.47 50.52 51.78 48.49 53.37 53.01 52.61 48.47 45.56 48.69 44.13 50.27 54.03 52.40 55.41 58.29 59.74 59.22 66.46 67.82 67.91 68.31 68.55 70.44 71.78 71.73 73.16 72.70 73.29 73.05 72.68 71.73 70.53 69.52 70.16 71.04 71.72 69.69 69.73 69.85 70.96
51.66 55.36 52.63 51.71 54.03 53.24 54.00 51.66 50.91 48.96 45.99 40.81 46.47 47.64 48.81 51.01 53.76 54.60 60.34 61.32 62.19 62.91 67.87 69.02 69.58 69.71 70.20 71.47 72.54 72.52 73.92 72.85 73.73 73.09 72.02 71.20 70.09 69.80 69.75 70.57 69.89 69.51 70.07 70.90
50.62 51.86 53.94 54.02 49.32 52.30 50.42 45.31 39.63 39.67 39.68 39.54 49.78 48.09 49.00 52.96 55.38 56.65 59.65 61.16 62.15 63.62 67.22 68.06 68.63 68.75 69.47 70.18 72.31 72.86 73.38 72.55 73.23 72.67 72.76 72.35 71.43 70.83 69.40 70.72 70.10 69.61 70.70 70.99
44.99 46.08 52.57 54.19 51.10 49.05 49.22 46.17 41.28 36.62 38.24 43.25 47.31 45.10 48.97 56.04 56.29 57.52 61.44 62.47 63.34 61.94 64.39 67.82 68.99 69.14 69.42 70.38 71.69 72.68 72.85 72.95 73.44 73.01 72.72 72.61 72.42 70.63 70.39 71.10 71.15 70.59 70.97 70.89
46.30 48.92 55.90 55.53 54.90 51.90 48.59 44.98 48.16 42.63 43.30 41.36 46.61 51.46 54.13 56.69 57.58 59.25 59.77 62.58 63.72 62.76 65.27 67.62 69.29 69.80 70.17 70.18 71.60 72.66 73.21 73.13 74.06 73.42 73.25 71.89 71.71 69.68 69.37 70.58 71.38 71.25 71.85 72.20
49.53 45.07 52.40 54.72 54.57 53.57 50.50 52.13 44.68 43.69 37.82 37.47 43.21 47.71 46.59 51.60 54.22 58.59 60.52 61.59 62.90 64.50 65.80 65.54 62.27 69.76 70.58 70.50 72.59 73.65 73.79 73.72 74.03 73.94 73.04 72.35 71.81 70.83 70.23 70.53 70.69 70.90 71.04 71.43
50.64 49.11 49.34 53.33 49.53 48.82 50.60 48.19 48.40 46.99 45.76 39.97 38.43 43.78 52.10 56.55 59.13 59.92 61.33 62.84 62.66 63.46 65.04 67.44 65.71 69.62 70.01 71.87 73.12 73.59 73.89 73.87 73.59 73.35 72.03 72.25 72.72 71.57 70.85 70.00 69.74 70.58 71.30 71.91
51.83 47.47 43.95 48.34 53.49 54.56 51.35 46.75 46.96 46.27 43.48 46.39 45.94 43.74 58.61 57.74 58.84 60.56 61.57 62.46 64.64 64.76 65.90 66.59 68.21 69.64 69.54 70.94 72.34 73.47 74.02 74.00 74.08 73.38 72.60 72.25 72.38 72.79 71.06 70.25 69.76 71.39 71.83 71.19
51.38 47.37 41.46 44.17 47.92 49.33 48.20 50.13 48.20 47.81 47.48 44.04 40.87 44.96 57.31 57.42 56.62 56.87 57.50 60.63 63.47 64.16 65.39 66.76 67.24 65.71 60.59 60.33 70.74 72.95 73.48 73.71 73.93 73.50 72.88 71.88 72.15 72.28 71.63 71.41 70.75 71.38 71.53 70.31
55.77 46.33 43.87 39.77 43.46 47.75 46.09 49.10 49.35 44.70 40.65 42.19 43.21 49.52 53.76 54.27 56.45 57.59 56.59 57.62 62.05 63.73 64.33 65.05 66.48 66.87 64.55 63.16 70.97 71.52 72.69 73.96 73.29 72.95 72.87 71.78 71.56 71.86 71.82 71.73 71.24 71.49 71.69 70.37
50.11 43.52 44.94 47.21 49.32 49.68 49.03 49.23 49.41 46.31 45.37 40.77 44.91 45.71 50.51 55.80 55.03 55.18 56.26 61.12 63.32 62.83 63.19 64.20 64.33 66.04 67.65 68.02 71.15 71.93 72.69 73.06 72.88 72.24 72.67 72.00 71.85 72.53 72.29 71.78 71.54 71.74 71.89 71.31
51.39 45.28 46.71 45.41 50.24 49.75 48.31 49.78 49.99 49.51 49.17 47.54 47.56 47.40 56.12 57.52 59.63 60.47 61.12 62.11 61.28 61.65 63.07 64.01 64.05 64.91 65.62 67.46 68.24 72.50 72.28 72.54 72.47 72.31 72.55 72.62 72.29 72.52 71.99 72.03 72.02 71.39 71.84 71.82
47.30 45.18 44.17 40.17 47.86 47.86 43.51 47.73 49.42 49.99 50.08 47.74 45.17 51.45 56.58 56.31 58.54 58.88 61.17 60.71 60.89 61.30 61.49 61.11 62.27 63.63 64.26 64.99 67.54 71.18 71.94 73.47 72.49 72.91 72.74 72.79 72.45 72.25 71.61 71.58 71.92 71.71 71.77 71.41
45.53 45.43 44.73 40.82 42.85 36.26 46.57 51.98 52.52 51.70 52.95 53.44 54.05 54.89 55.45 55.13 58.75 59.06 58.91 58.49 61.36 61.65 61.29 61.33 61.28 62.01 63.53 65.67 67.22 69.76 70.83 73.00 73.22 72.90 73.62 73.30 72.25 72.35 72.35 71.46 72.43 71.62 72.26 72.09
49.23 46.65 42.00 39.14 38.81 44.17 48.20 51.30 50.86 48.00 49.98 54.19 53.10 54.52 55.31 55.70 56.86 55.45 58.91 58.48 57.96 58.93 61.75 61.29 61.37 61.56 61.69 64.15 69.21 69.49 70.69 72.55 73.01 72.77 72.72 72.74 72.72 72.15 72.39 71.44 71.88 72.35 72.13 72.30
50.85 49.72 44.64 41.49 38.14 37.11 46.02 52.06 54.73 52.85 45.29 53.95 54.26 53.72 53.35 53.46 47.11 52.01 55.66 57.42 57.70 58.35 58.62 60.26 62.53 62.11 61.43 63.46 68.50 68.12 70.13 71.76 71.76 73.00 72.91 73.25 73.47 72.50 71.78 71.95 71.11 72.57 72.25 72.15
46.75 47.03 44.01 43.88 43.44 46.53 51.80 53.03 54.71 42.48 43.24 52.15 53.27 52.73 52.55 49.40 51.31 53.52 55.89 56.43 57.11 57.71 58.79 59.01 59.91 61.72 61.46 62.21 65.79 66.84 69.25 69.05 72.04 73.55 73.28 73.24 73.55 73.39 72.93 72.52 72.45 72.07 72.24 72.40
43.78 41.87 41.61 42.16 39.83 38.93 52.75 52.12 46.68 49.08 53.42 52.62 53.73 52.62 52.22 52.95 54.16 54.39 54.75 54.84 55.80 55.76 57.09 57.71 57.14 59.01 62.75 62.73 62.65 67.12 67.75 70.42 71.45 72.66 72.44 73.75 74.13 74.31 73.73 73.08 72.59 72.31 72.47 72.03
42.44 46.56 43.65 45.05 44.35 51.01 52.56 51.28 52.53 52.51 51.03 51.96 52.31 53.77 53.51 53.17 53.12 53.96 53.62 54.74 56.05 56.86 56.79 57.25 56.28 57.91 62.13 62.49 63.81 66.11 66.71 70.58 71.19 70.53 72.02 72.66 74.14 73.82 73.75 72.84 73.00 72.64 72.95 70.93
48.91 51.23 46.62 46.28 49.72 50.13 52.31 53.78 54.31 54.60 53.06 54.07 54.50 54.05 54.40 52.92 53.96 52.78 53.54 54.20 54.95 55.85 56.35 57.93 56.84 57.10 58.92 62.74 63.43 65.97 69.36 69.37 69.01 68.96 69.80 72.04 72.40 72.66 73.67 73.89 73.41 73.20 72.41 70.68
48.85 50.09 47.28 46.75 49.27 50.57 52.71 52.99 53.38 54.01 54.85 54.94 55.64 55.38 54.75 54.25 53.85 53.76 53.17 54.43 54.97 55.25 56.53 56.97 57.40 57.48 59.32 62.95 63.38 66.61 67.41 67.01 66.89 68.13 69.66 71.14 71.56 71.17 72.59 72.85 70.84 72.17 72.37 70.98
50.39 47.53 44.56 43.71 49.48 49.13 49.86 52.66 53.97 53.76 54.33 55.03 54.78 54.51 55.54 55.71 54.08 54.33 54.02 55.35 56.11 55.47 56.82 56.83 58.40 58.93 60.77 63.47 62.48 65.11 66.16 66.25 65.12 65.44 66.05 68.06 70.55 71.89 72.50 71.74 61.70 53.79 55.24 55.42
MSLP
1003.89 1004.52 1004.13 1003.31 1002.94 1002.56 1002.42 1002.61 1002.44 1001.79 1001.15 1001.18 1001.51 1001.63 1001.35 1000.91 1001.39 1001.61 1002.00 1002.37 1003.22 1003.51 1004.26 1004.95 1005.22 1006.18 1007.41 1008.40 1009.15 1010.06 1010.83 1011.54 1012.28 1013.07 1013.79 1014.45 1014.86 1014.85 1014.99 1015.18 1015.41 1015.64 1016.00 1016.16
1004.08 1003.74 1002.89 1002.38 1002.08 1002.16 1002.33 1002.52 1002.56 1001.91 1001.22 1001.33 1001.56 1001.59 1000.84 1000.43 1000.37 1000.66 1001.18 1001.63 1002.08 1002.95 1003.64 1004.68 1005.15 1005.98 1006.93 1007.89 1008.54 1009.49 1010.43 1011.22 1011.84 1012.54 1013.32 1013.64 1013.99 1014.50 1015.05 1015.33 1015.65 1015.68 1015.84 1016.23
1003.58 1002.75 1002.07 1001.73 1001.95 1002.30 1002.37 1002.40 1002.20 1001.97 1001.72 1001.64 1001.93 1001.71 1000.77 999.83 999.60 999.89 1000.09 1000.25 1000.75 1001.66 1002.84 1004.10 1004.92 1005.44 1006.47 1007.47 1008.37 1009.19 1010.00 1010.78 1011.41 1011.96 1012.95 1013.49 1014.02 1014.50 1015.23 1015.67 1015.82 1015.77 1015.68 1015.91
1002.80 1001.96 1001.59 1001.44 1001.71 1001.92 1002.28 1001.99 1001.95 1002.04 1002.53 1002.95 1002.61 1002.70 1001.33 1000.29 999.86 999.76 999.57 999.91 1000.13 1001.00 1002.08 1003.32 1004.38 1005.36 1006.25 1007.01 1007.95 1008.72 1009.41 1010.26 1010.93 1011.51 1012.50 1012.99 1013.57 1014.08 1014.34 1014.84 1015.18 1015.60 1015.72 1015.96
1002.60 1001.82 1001.32 1001.29 1001.44 1001.53 1001.91 1001.90 1002.35 1002.61 1003.15 1003.52 1002.73 1003.03 1000.86 1000.17 1000.07 999.89 999.79 999.39 999.42 1000.09 1001.23 1002.61 1003.66 1004.51 1005.42 1006.33 1007.30 1008.25 1008.98 1009.75 1010.44 1011.13 1011.69 1012.53 1013.27 1013.62 1013.87 1014.59 1015.21 1015.48 1015.43 1015.82
1002.26 1001.33 1001.15 1000.96 1001.06 1001.29 1001.62 1002.15 1002.72 1003.09 1003.95 1004.37 1003.40 1002.90 1002.93 1000.81 999.96 999.52 999.51 999.39 999.51 999.89 1000.84 1001.83 1002.69 1003.86 1004.96 1005.97 1006.92 1007.83 1008.60 1009.37 1009.95 1010.47 1011.27 1012.11 1012.86 1013.43 1013.85 1014.44 1015.00 1015.22 1015.51 1015.83
1002.17 1001.31 1000.74 1000.69 1001.03 1001.29 1001.79 1002.58 1003.59 1004.33 1004.80 1004.73 1002.94 1002.62 1002.10 1000.40 999.78 999.42 999.66 999.73 999.73 999.95 1000.73 1001.69 1002.68 1003.54 1004.44 1005.36 1006.32 1007.41 1008.29 1009.15 1009.60 1010.11 1010.91 1011.70 1012.27 1012.79 1013.35 1013.88 1014.62 1014.89 1015.34 1015.44
1002.05 1000.82 999.58 1000.24 1000.86 1001.14 1001.59 1002.55 1003.72 1004.60 1005.06 1004.36 1003.34 1003.42 1002.00 1000.49 999.79 999.55 999.62 999.91 1000.03 1000.19 1000.61 1001.63 1002.52 1003.27 1003.85 1004.51 1005.44 1006.67 1007.87 1008.78 1009.34 1010.01 1010.57 1011.18 1011.66 1012.27 1012.78 1013.45 1013.98 1014.43 1014.66 1014.60
1001.87 1001.15 1000.63 1000.19 1000.38 1000.83 1001.57 1002.35 1002.86 1004.12 1003.95 1004.30 1003.56 1003.21 1001.83 1000.74 1000.48 1000.56 1000.64 1001.16 1001.26 1000.80 1000.96 1001.46 1002.29 1003.09 1003.81 1004.24 1004.74 1005.85 1007.19 1008.21 1008.93 1009.73 1010.27 1010.92 1011.37 1011.98 1012.54 1012.96 1013.44 1013.73 1013.94 1014.32
1002.05 1002.32 1001.42 1001.03 1000.41 1000.82 1001.37 1002.02 1002.99 1004.20 1005.44 1005.27 1003.96 1003.14 1002.51 1002.08 1002.13 1002.09 1002.44 1002.57 1002.32 1002.00 1002.35 1003.83 1006.90 1004.55 1004.00 1004.45 1004.58 1005.46 1006.62 1007.43 1008.35 1009.17 1009.99 1010.60 1011.09 1011.63 1012.26 1012.71 1012.77 1013.08 1013.45 1014.10
1002.42 1003.14 1003.12 1002.45 1001.97 1002.02 1002.16 1002.57 1003.28 1004.15 1005.20 1005.87 1005.31 1004.74 1003.10 1004.02 1003.87 1003.89 1004.08 1004.39 1003.71 1003.00 1003.18 1003.80 1005.60 1002.37 1003.85 1004.41 1004.73 1005.47 1006.45 1007.40 1008.05 1008.86 1009.54 1010.27 1010.86 1011.35 1011.93 1012.31 1012.34 1013.04 1013.31 1013.82
1003.84 1004.03 1004.33 1003.75 1002.67 1002.30 1002.45 1002.84 1003.29 1004.47 1005.10 1004.99 1005.13 1004.80 1004.72 1005.06 1005.51 1005.32 1005.88 1006.36 1005.45 1004.09 1003.68 1004.58 1004.60 1005.04 1004.86 1004.21 1005.13 1005.35 1006.24 1007.00 1007.56 1008.24 1009.14 1009.95 1010.51 1011.11 1011.46 1011.89 1012.13 1012.83 1013.13 1013.24
1004.65 1005.21 1005.63 1004.97 1004.27 1003.00 1003.69 1003.50 1003.74 1004.19 1004.39 1005.42 1005.98 1005.92 1005.53 1005.66 1006.49 1006.02 1006.13 1006.20 1005.48 1005.31 1004.27 1004.58 1005.95 1006.50 1007.33 1007.85 1005.33 1005.83 1005.76 1006.56 1007.04 1007.54 1008.49 1009.37 1010.10 1010.77 1011.10 1011.34 1011.75 1012.22 1012.48 1012.73
1005.13 1006.04 1006.53 1006.54 1006.09 1005.31 1004.87 1004.39 1004.06 1004.54 1005.17 1005.41 1005.48 1005.71 1005.81 1005.76 1005.81 1006.03 1005.49 1005.44 1005.72 1005.38 1005.15 1004.86 1005.94 1006.95 1008.33 1008.05 1005.85 1005.35 1005.44 1006.03 1006.52 1007.02 1008.02 1008.86 1009.54 1010.21 1010.60 1010.84 1011.28 1011.79 1012.11 1012.52
1005.68 1006.68 1006.87 1006.84 1006.39 1005.85 1005.30 1005.02 1004.76 1004.73 1004.77 1005.26 1005.23 1005.24 1005.18 1004.91 1004.66 1004.69 1005.53 1005.63 1005.86 1005.72 1005.76 1005.90 1005.94 1006.14 1006.25 1006.45 1005.78 1005.12 1005.44 1005.83 1006.16 1006.65 1007.53 1008.24 1008.82 1009.29 1009.77 1010.10 1010.59 1011.12 1011.55 1011.97
1006.09 1006.73 1007.12 1007.33 1006.82 1006.42 1005.95 1005.32 1004.81 1004.67 1004.60 1004.57 1004.79 1005.64 1005.31 1005.74 1006.06 1006.47 1006.82 1006.36 1006.30 1006.44 1006.90 1006.58 1006.48 1006.22 1006.53 1006.51 1006.24 1005.45 1005.14 1005.54 1005.75 1006.28 1006.92 1007.63 1008.04 1008.62 1009.30 1009.77 1009.97 1010.51 1011.04 1011.35
1006.75 1007.19 1007.95 1007.97 1007.65 1007.18 1006.61 1005.67 1005.18 1004.83 1004.65 1004.82 1005.67 1006.74 1006.53 1007.03 1007.28 1007.20 1007.29 1007.10 1007.33 1007.47 1007.31 1007.25 1006.80 1006.70 1006.29 1006.33 1006.31 1005.81 1005.08 1004.64 1005.16 1005.78 1006.45 1007.04 1007.56 1007.99 1008.62 1009.26 1009.65 1010.01 1010.47 1010.87
1006.67 1007.48 1008.02 1008.50 1008.33 1007.83 1006.82 1005.56 1005.25 1005.38 1005.71 1005.45 1006.02 1006.74 1007.32 1007.65 1007.78 1007.75 1007.88 1008.00 1007.70 1007.42 1007.17 1007.16 1007.07 1007.01 1006.70 1006.10 1005.88 1005.49 1005.30 1004.81 1004.99 1005.32 1005.80 1006.40 1006.95 1007.41 1007.90 1008.53 1009.04 1009.42 1009.74 1010.17
1005.90 1007.02 1008.19 1008.67 1008.73 1008.00 1007.19 1006.60 1006.36 1006.10 1007.35 1007.37 1007.48 1007.93 1008.46 1008.64 1008.59 1008.61 1008.26 1008.20 1008.22 1008.18 1008.02 1007.80 1007.58 1007.43 1007.04 1006.60 1006.01 1005.69 1005.32 1004.88 1004.64 1004.95 1005.40 1005.80 1006.27 1006.80 1007.30 1007.76 1008.28 1008.70 1009.10 1009.49
1005.97 1006.87 1008.35 1009.15 1009.36 1008.85 1008.68 1007.85 1007.13 1006.64 1008.32 1008.71 1008.56 1008.90 1009.20 1009.46 1009.59 1009.34 1008.99 1008.50 1008.28 1007.92 1007.80 1007.79 1007.52 1007.11 1007.00 1006.61 1006.00 1005.70 1005.35 1004.91 1004.25 1004.41 1004.67 1005.11 1005.63 1006.17 1006.60 1007.00 1007.54 1008.10 1008.58 1009.02
1007.42 1008.11 1008.84 1009.27 1009.49 1009.05 1009.12 1008.63 1007.91 1008.61 1010.72 1010.11 1010.15 1010.30 1009.93 1010.07 1009.86 1009.28 1008.77 1008.59 1008.39 1008.12 1007.85 1007.62 1007.44 1007.20 1006.75 1006.32 1006.11 1005.82 1005.42 1005.11 1004.82 1004.08 1004.13 1004.72 1005.11 1005.43 1005.95 1006.48 1006.90 1007.44 1008.12 1008.66
1008.52 1008.89 1009.38 1009.50 1009.78 1009.93 1009.33 1009.26 1010.19 1011.05 1010.82 1010.45 1010.65 1010.72 1010.50 1010.27 1009.88 1009.52 1009.13 1008.79 1008.56 1008.28 1007.96 1007.75 1007.48 1007.19 1006.65 1006.11 1005.99 1005.88 1005.48 1005.02 1004.68 1004.41 1004.06 1003.97 1004.62 1004.79 1005.38 1006.05 1006.44 1007.02 1007.59 1008.09
1009.48 1009.60 1010.01 1010.34 1010.47 1010.86 1010.55 1010.75 1010.80 1011.05 1011.33 1011.41 1011.50 1010.91 1010.41 1010.16 1009.97 1009.73 1009.48 1009.23 1008.95 1008.54 1008.00 1007.50 1007.16 1006.84 1006.37 1005.80 1005.58 1005.68 1005.23 1004.92 1004.72 1004.38 1004.13 1003.65 1003.90 1004.57 1005.10 1005.38 1005.98 1006.59 1006.94 1007.53
1009.91 1010.13 1010.81 1010.94 1010.86 1011.34 1011.11 1011.36 1011.43 1011.49 1011.65 1011.44 1011.13 1010.79 1010.44 1009.99 1009.60 1009.19 1009.14 1009.07 1008.78 1008.41 1008.07 1007.77 1007.12 1006.54 1006.19 1005.61 1005.20 1005.17 1005.15 1005.07 1005.04 1004.70 1004.29 1003.58 1003.60 1003.75 1003.99 1004.46 1005.34 1005.83 1006.21 1006.61
1010.96 1010.94 1011.86 1011.84 1011.66 1011.64 1011.22 1011.63 1011.74 1011.64 1011.39 1011.01 1010.66 1010.15 1009.70 1009.36 1009.09 1009.01 1008.83 1008.81 1008.48 1008.12 1007.83 1007.51 1007.20 1006.58 1005.81 1005.27 1004.88 1004.79 1004.96 1004.99 1004.93 1004.62 1003.99 1003.46 1003.01 1003.07 1003.59 1003.86 1004.36 1004.37 1004.64 1005.06
1011.62 1012.33 1012.71 1012.77 1012.89 1012.83 1012.12 1011.68 1011.64 1011.25 1010.74 1010.42 1010.05 1009.55 1009.23 1008.90 1008.44 1008.45 1008.40 1008.21 1007.89 1007.46 1007.25 1007.05 1006.89 1006.50 1005.60 1004.88 1004.47 1004.39 1004.50 1004.69 1004.63 1004.40 1004.04 1003.36 1002.77 1002.56 1002.91 1003.51 1004.70 1004.13 1004.71 1004.43
Wind_Speed
9 3 8 14 9 6 5 6 6 8 9 3 3 8 12 10 16 11 9 10 14 23 18 17 17 16 17 17 17 15 10 9 8 5 4 3 4 2 1 4 6 6 3 4
6 9 16 14 8 9 7 2 8 8 9 4 7 11 15 12 8 10 13 10 16 18 15 14 15 11 16 18 18 15 13 13 10 8 4 4 4 3 3 4 4 4 4 2
8 13 12 4 3 7 8 6 8 8 5 7 7 10 9 3 8 7 9 12 10 17 18 17 13 14 18 18 15 15 14 13 11 11 5 4 4 3 4 3 3 4 4 1
7 10 9 5 6 5 5 11 11 8 7 5 3 11 14 6 8 7 7 8 9 16 17 19 17 10 19 17 17 16 16 15 13 10 9 7 7 4 4 5 4 5 5 6
11 10 6 5 9 7 7 8 7 7 5 5 13 1 9 7 3 6 6 6 2 19 22 22 21 18 16 19 15 15 18 15 10 9 10 7 5 3 3 5 7 4 2 5
10 10 5 4 6 6 7 5 9 7 1 3 11 3 8 3 8 3 6 6 6 12 21 22 19 20 16 15 15 14 14 13 9 9 8 9 8 6 5 7 6 5 5 6
13 18 12 6 4 7 7 3 5 6 2 6 10 4 6 12 5 6 9 5 6 9 19 18 20 18 17 18 18 15 14 12 9 9 9 8 8 8 8 8 7 8 6 6
7 13 19 8 7 7 4 6 6 6 4 5 4 7 4 3 6 7 10 9 6 4 9 19 18 17 18 19 20 18 15 12 11 9 9 7 7 4 5 6 8 7 5 6
4 7 6 9 6 4 5 5 7 4 6 3 5 7 6 6 8 10 11 14 13 4 8 16 17 15 15 17 18 20 17 14 12 11 8 7 7 8 6 6 6 6 5 6
5 5 8 11 1 6 7 7 7 5 3 6 7 3 3 2 5 12 16 13 12 13 13 22 8 18 16 16 18 18 16 16 14 11 9 7 9 9 8 7 7 8 5 6
5 3 10 9 6 3 7 5 4 3 5 3 3 5 2 12 15 17 17 14 11 10 11 10 19 19 15 17 17 17 16 14 12 9 9 9 9 9 9 9 10 5 4 9
5 0 3 9 12 9 7 4 5 5 7 5 3 5 13 18 15 14 14 15 10 10 13 15 16 11 5 16 14 17 15 15 13 9 10 9 9 9 10 10 10 7 6 7
4 5 5 11 12 5 8 13 10 10 4 1 3 1 9 14 6 4 6 6 5 7 12 13 13 17 22 27 9 15 16 15 13 12 12 9 10 10 10 10 9 7 8 7
6 2 4 6 7 9 9 13 13 5 3 5 4 3 5 3 6 8 7 7 5 6 8 11 10 10 21 29 13 12 14 15 13 13 12 10 9 10 10 9 9 10 8 9
5 2 5 8 9 11 14 14 14 11 8 4 9 9 7 13 9 2 5 4 6 9 10 12 11 11 8 9 3 7 11 13 13 13 12 12 12 10 11 11 8 7 8 10
4 3 3 5 8 10 12 12 12 10 9 8 8 8 7 11 7 6 4 2 9 9 7 8 8 10 10 8 7 4 12 13 13 13 13 14 13 12 10 9 12 10 7 9
4 3 4 5 7 11 8 9 12 13 10 3 6 5 9 8 9 5 2 7 7 5 5 6 8 8 8 7 7 8 5 12 13 13 13 15 14 13 11 8 9 9 10 8
6 3 2 4 4 7 9 9 8 8 19 14 11 10 9 7 7 11 10 9 9 7 9 9 8 8 9 9 9 8 11 5 10 13 14 14 14 13 13 12 10 10 9 11
9 4 1 2 4 7 8 7 8 5 9 14 12 12 10 10 5 8 7 5 4 5 4 1 4 4 8 12 5 6 9 9 8 12 12 12 13 14 13 14 13 11 11 10
4 6 5 3 5 6 3 14 15 4 3 12 9 8 7 6 4 3 5 6 7 6 5 6 6 5 6 8 8 7 8 11 9 9 13 13 14 14 15 14 14 10 10 11
3 3 2 4 5 2 5 9 11 2 4 11 13 14 8 4 4 7 9 6 6 6 8 8 8 7 7 7 7 8 6 9 8 7 9 11 13 14 14 12 11 12 10 9
3 2 4 3 3 3 4 6 5 5 5 5 5 7 9 10 11 8 8 8 8 8 7 8 9 9 8 6 6 7 7 6 7 11 8 9 12 11 11 12 11 10 10 12
4 2 2 1 1 6 8 6 5 7 4 6 8 9 7 9 9 10 7 7 7 9 8 8 7 10 8 7 3 6 7 6 6 7 8 7 8 10 10 12 12 10 12 10
3 7 4 6 7 12 8 10 11 9 6 8 11 12 13 13 13 9 8 9 10 6 7 11 9 9 8 8 5 6 3 4 5 7 9 7 8 9 11 10 11 11 12 10
1 5 5 4 5 10 3 12 11 14 15 16 15 14 15 15 13 8 6 9 8 7 9 8 12 12 12 8 6 3 2 3 5 7 10 10 8 8 10 12 8 11 9 11
5 3 2 3 6 4 13 12 16 16 15 12 12 13 15 17 11 8 8 9 9 10 10 8 10 14 13 9 8 5 3 3 4 6 5 4 4 6 8 7 3 11 8 4
Wind_Direction
239 193 247 258 256 285 52 2 312 306 300 155 222 272 273 258 192 188 194 183 170 161 191 169 158 158 159 158 158 163 164 163 147 144 146 136 169 165 185 114 99 119 107 217
272 237 239 257 290 325 330 273 289 289 285 53 313 283 276 264 196 172 191 198 184 173 172 161 155 146 161 165 167 160 163 162 161 151 175 147 152 142 127 109 130 126 159 296
225 254 275 228 327 310 318 289 260 242 307 349 318 304 299 322 134 170 188 199 174 176 162 157 155 150 162 164 170 166 165 162 167 168 154 111 117 87 113 146 143 186 172 272
250 263 275 332 332 303 260 282 314 328 27 297 297 292 305 202 162 181 225 215 197 170 161 158 159 162 159 168 160 164 164 167 180 158 169 160 164 167 178 159 164 175 173 211
250 276 248 236 240 257 265 315 320 316 303 353 295 331 277 126 134 183 177 95 314 157 160 167 163 171 162 157 163 154 164 171 169 148 157 152 152 177 142 125 164 167 198 239
276 285 268 222 306 333 320 1 300 286 47 338 275 104 356 275 185 170 111 114 36 138 163 167 169 163 155 162 158 163 156 166 158 150 153 155 169 176 171 159 168 175 202 229
266 257 249 208 223 271 263 263 314 332 33 211 254 320 186 254 141 127 160 125 86 127 165 165 164 167 156 164 161 164 162 167 153 154 149 161 178 178 181 149 169 181 194 220
269 313 189 192 189 215 293 198 177 283 266 237 351 334 295 353 96 43 92 150 159 141 149 164 166 168 167 165 163 165 164 161 157 161 158 173 175 155 163 149 165 188 190 206
3 327 351 135 197 108 289 340 259 319 295 9 154 186 322 28 41 85 70 47 16 24 158 157 153 170 170 168 157 161 161 166 163 168 158 170 151 147 160 168 175 189 200 227
343 344 342 326 120 219 185 228 1 346 347 317 320 343 240 61 39 61 45 40 17 9 20 99 112 239 171 170 156 156 160 163 166 159 163 163 157 161 164 182 197 201 208 256
44 54 305 344 301 331 338 313 257 254 125 162 300 293 143 67 55 60 40 22 8 354 6 54 203 173 158 154 150 155 158 160 162 156 159 158 161 168 163 186 216 202 209 271
26 272 297 271 289 304 307 344 355 132 277 201 185 308 95 67 47 55 55 0 336 350 359 34 24 97 354 148 147 158 160 163 167 160 158 163 162 168 176 192 213 199 181 194
14 328 351 339 341 343 20 331 334 329 51 342 83 302 78 91 42 50 44 337 348 343 355 30 61 81 95 284 181 166 163 170 166 158 159 161 168 170 181 191 194 195 169 187
116 274 214 216 256 302 327 323 325 340 359 307 285 150 50 131 155 242 218 232 278 41 12 21 30 116 163 221 212 164 167 170 167 159 157 164 170 177 183 190 186 195 176 170
128 225 290 296 306 313 314 310 308 312 293 303 285 296 186 204 195 205 319 44 69 44 23 7 5 11 7 7 281 154 161 168 169 165 166 173 180 183 181 186 188 189 180 176
318 267 249 277 286 303 317 319 318 307 301 287 311 10 50 89 103 91 111 47 70 59 29 3 353 1 17 334 335 222 166 173 174 177 177 176 181 188 189 187 193 196 182 177
311 321 352 286 323 316 317 300 300 296 301 78 78 106 68 44 63 20 71 68 79 79 36 3 357 343 350 343 332 340 251 182 181 181 176 180 185 180 187 189 185 183 181 179
247 247 195 256 308 271 256 272 303 33 22 24 76 68 70 75 84 70 54 33 21 22 351 352 353 341 333 325 323 338 331 236 183 186 183 178 184 183 181 188 188 186 177 184
203 186 258 190 234 284 296 351 3 69 49 23 30 40 38 7 46 41 42 57 339 340 340 283 308 316 318 312 309 329 321 274 182 185 184 177 180 183 184 193 196 195 190 186
103 119 123 317 274 265 18 358 349 348 68 351 23 24 25 22 14 231 15 355 337 341 337 326 311 302 316 314 320 339 320 329 204 185 192 189 184 190 196 198 198 194 195 202
15 352 247 273 268 268 341 11 341 284 286 341 7 356 354 337 249 290 329 337 337 329 323 327 322 298 284 306 315 317 337 326 319 224 196 191 198 194 199 197 193 199 196 197
289 280 280 273 294 304 28 63 76 218 268 315 331 326 325 324 324 303 296 300 303 295 295 295 300 295 281 289 324 301 317 304 323 324 237 201 203 195 192 195 196 194 198 207
335 120 213 133 247 61 21 74 47 61 28 345 339 304 284 288 299 309 310 319 316 311 294 266 266 278 278 275 296 301 291 312 336 320 299 212 204 204 205 200 196 193 200 206
358 41 42 21 6 5 349 26 10 0 341 314 305 304 307 297 289 269 293 303 305 302 312 315 297 294 281 269 273 272 340 352 325 303 284 252 218 213 209 211 205 196 204 195
38 19 351 271 12 346 12 345 328 315 298 293 290 284 277 274 281 294 291 299 273 294 293 294 303 288 284 266 265 245 298 333 299 291 275 250 222 202 212 218 226 203 199 188
17 43 357 286 324 283 293 299 305 298 295 298 301 299 296 294 271 266 265 271 279 281 291 295 300 292 279 264 267 227 181 270 293 296 321 318 264 220 215 205 166 43 28 178